IU2GZQ-13 Weather Reports


time (UTC)temp
C
wind
direction
speed
KPH
gust
KPH
rain 1hr
cm
rain 24hr
cm
rain mn
cm
humidity
%
barometer
mb
20260902185023 27 0.0 0.0 0.00 0.00 0.00 59 1017.8
20260902184021 27 0.0 0.0 0.00 0.00 0.00 56 1017.7
20260902183017 27 0.0 0.0 0.00 0.00 0.00 56 1017.5
20260902182035 27 241 0.0 3.2 0.00 0.00 0.00 55 1017.5
20260902181032 28 241 0.0 1.6 0.00 0.00 0.00 55 1017.5
20260902180129 28 0.0 0.0 0.00 0.00 0.00 53 1017.3
20260902175106 28 274 1.6 3.2 0.00 0.00 0.00 53 1017.2
20260902174104 29 287 0.0 3.2 0.00 0.00 0.00 51 1017.1
20260902173123 29 294 0.0 1.6 0.00 0.00 0.00 50 1017.3
20260902172132 30 262 3.2 11.3 0.00 0.00 0.00 50 1017.2
20260902171051 30 271 1.6 4.8 0.00 0.00 0.00 49 1017.2
20260902170026 30 268 1.6 4.8 0.00 0.00 0.00 49 1017.2
20260902165023 31 240 1.6 6.4 0.00 0.00 0.00 48 1017.2
20260902164020 31 263 3.2 4.8 0.00 0.00 0.00 47 1017.0
20260902163057 31 258 4.8 9.7 0.00 0.00 0.00 47 1017.1
20260902162037 31 271 3.2 11.3 0.00 0.00 0.00 46 1017.2
20260902161131 31 264 3.2 6.4 0.00 0.00 0.00 45 1017.1
20260902160129 32 267 4.8 4.8 0.00 0.00 0.00 45 1017.2
20260902155040 31 247 1.6 9.7 0.00 0.00 0.00 47 1017.3
20260902154043 31 259 3.2 6.4 0.00 0.00 0.00 46 1017.2
20260902153139 32 248 4.8 9.7 0.00 0.00 0.00 46 1017.3
20260902152201 32 265 3.2 9.7 0.00 0.00 0.00 45 1017.2
20260902151036 32 271 6.4 9.7 0.00 0.00 0.00 45 1017.5
20260902150031 32 233 4.8 9.7 0.00 0.00 0.00 45 1017.7
20260902145042 32 239 4.8 9.7 0.00 0.00 0.00 46 1017.7
20260902144020 32 245 4.8 9.7 0.00 0.00 0.00 45 1017.5
20260902143017 32 264 3.2 12.9 0.00 0.00 0.00 46 1017.8
20260902142034 32 244 4.8 12.9 0.00 0.00 0.00 46 1018.1
20260902141051 32 212 3.2 9.7 0.00 0.00 0.00 47 1018.0
20260902140209 32 239 4.8 12.9 0.00 0.00 0.00 47 1018.1
20260902135028 32 243 1.6 4.8 0.00 0.00 0.00 47 1018.2
20260902134046 32 249 1.6 6.4 0.00 0.00 0.00 48 1018.2
20260902133123 32 301 3.2 9.7 0.00 0.00 0.00 47 1018.4
20260902132020 32 169 3.2 9.7 0.00 0.00 0.00 47 1018.6
20260902131046 32 240 3.2 6.4 0.00 0.00 0.00 48 1018.7
20260902130050 32 340 1.6 4.8 0.00 0.00 0.00 48 1018.7
20260902125022 32 221 1.6 4.8 0.00 0.00 0.00 48 1018.9
20260902124054 32 247 6.4 11.3 0.00 0.00 0.00 49 1019.1
20260902123132 31 82 1.6 11.3 0.00 0.00 0.00 50 1018.9
20260902122151 32 220 4.8 12.9 0.00 0.00 0.00 49 1019.1
20260902121106 31 209 1.6 9.7 0.00 0.00 0.00 51 1019.3
20260902120202 31 246 1.6 6.4 0.00 0.00 0.00 52 1019.2
20260902115715 31 328 3.2 6.4 0.00 0.00 0.00 51 1019.2
20260902114532 31 277 4.8 11.3 0.00 0.00 0.00 50 1019.5
20260902112520 30 243 1.6 4.8 0.00 0.00 0.00 52 1019.5
20260902111653 30 287 3.2 9.7 0.00 0.00 0.00 51 1019.7
20260902110554 31 204 3.2 6.4 0.00 0.00 0.00 50 1019.7
20260902105533 31 107 3.2 6.4 0.00 0.00 0.00 50 1019.8
20260902104544 30 230 1.6 6.4 0.00 0.00 0.00 51 1020.0
20260902103617 31 145 0.0 4.8 0.00 0.00 0.00 48 1020.1
20260902102534 30 119 1.6 6.4 0.00 0.00 0.00 51 1020.2
20260902101524 30 56 1.6 3.2 0.00 0.00 0.00 52 1020.2
20260902100521 30 344 1.6 4.8 0.00 0.00 0.00 51 1020.4
20260902095538 29 89 1.6 4.8 0.00 0.00 0.00 52 1020.5
20260902094536 29 86 0.0 4.8 0.00 0.00 0.00 51 1020.6
20260902093554 29 108 1.6 4.8 0.00 0.00 0.00 52 1020.5
20260902092650 28 107 4.8 9.7 0.00 0.00 0.00 53 1020.6
20260902091628 28 41 0.0 1.6 0.00 0.00 0.00 55 1020.6
20260902090604 28 89 0.0 1.6 0.00 0.00 0.00 55 1020.5
20260902085622 27 97 0.0 1.6 0.00 0.00 0.00 56 1020.6
20260902084613 27 98 1.6 3.2 0.00 0.00 0.00 57 1020.6
20260902083710 27 91 0.0 4.8 0.00 0.00 0.00 56 1020.7
20260902082627 28 99 1.6 4.8 0.00 0.00 0.00 54 1020.5
20260902081519 27 90 1.6 3.2 0.00 0.00 0.00 57 1020.6
20260902080048 27 0.0 0.0 0.00 0.00 0.00 57 1020.4
20260902075027 26 0.0 0.0 0.00 0.00 0.00 60 1020.4
20260902074024 26 10 1.6 3.2 0.00 0.00 0.00 61 1020.3
20260902073040 26 0.0 0.0 0.00 0.00 0.00 62 1020.3
20260902072017 26 0.0 0.0 0.00 0.00 0.00 66 1020.4
20260902071054 25 0.0 0.0 0.00 0.00 0.00 67 1020.1
20260902070026 25 0.0 0.0 0.00 0.00 0.00 69 1020.4
20260902065044 24 0.0 0.0 0.00 0.00 0.00 71 1020.3
20260902064041 23 0.0 0.0 0.00 0.00 0.00 76 1020.2
20260902063153 23 0.0 0.0 0.00 0.00 0.00 76 1020.3
20260902062030 23 0.0 0.0 0.00 0.00 0.00 78 1020.1
20260902061209 22 0.0 0.0 0.00 0.00 0.00 79 1020.0
20260902060519 21 98 0.0 1.6 0.00 0.00 0.00 80 1020.1
20260902055535 21 0.0 0.0 0.00 0.00 0.00 83 1020.1
20260902054533 20 0.0 0.0 0.00 0.00 0.00 84 1019.9
20260902053710 20 0.0 0.0 0.00 0.00 0.00 84 1019.8
20260902052527 20 0.0 0.0 0.00 0.00 0.00 85 1019.6
20260902051518 19 0.0 0.0 0.00 0.00 0.00 86 1019.6
20260902050637 19 0.0 0.0 0.00 0.00 0.00 87 1019.3
20260902045536 19 0.0 0.0 0.00 0.00 0.00 87 1019.3
20260902044543 19 0.0 0.0 0.00 0.00 0.00 87 1019.4
20260902043521 19 0.0 0.0 0.00 0.00 0.00 87 1019.4
20260902042557 19 0.0 0.0 0.00 0.00 0.00 86 1019.3
20260902041529 19 0.0 0.0 0.00 0.00 0.00 85 1019.3
20260902040642 19 0.0 0.0 0.00 0.00 0.00 85 1019.3
20260902035619 20 0.0 0.0 0.00 0.00 0.00 85 1019.3
20260902034536 20 0.0 0.0 0.00 0.00 0.00 84 1019.3
20260902033533 20 0.0 0.0 0.00 0.00 0.00 83 1019.2
20260902032525 20 0.0 0.0 0.00 0.00 0.00 82 1019.2
20260902031615 20 0.0 0.0 0.00 0.00 0.00 81 1019.3
20260902030521 20 0.0 0.0 0.00 0.00 0.00 82 1019.3
20260902025619 20 0.0 0.0 0.00 0.00 0.00 82 1019.2
20260902024717 20 0.0 0.0 0.00 0.00 0.00 82 1019.2
20260902023653 20 0.0 0.0 0.00 0.00 0.00 81 1019.1
20260902022651 20 0.0 0.0 0.00 0.00 0.00 81 1019.3
20260902021628 20 0.0 0.0 0.00 0.00 0.00 83 1019.1
20260902020625 20 0.0 0.0 0.00 0.00 0.00 83 1019.1
20260902015535 20 0.0 0.0 0.00 0.00 0.00 82 1019.1
20260902014631 20 0.0 0.0 0.00 0.00 0.00 82 1019.2
20260902013548 20 0.0 0.0 0.00 0.00 0.00 82 1019.1
20260902012525 20 0.0 0.0 0.00 0.00 0.00 83 1019.1
20260902010538 21 0.0 0.0 0.00 0.00 0.00 82 1019.2
20260902005618 21 0.0 0.0 0.00 0.00 0.00 82 1019.3
20260902004532 21 0.0 0.0 0.00 0.00 0.00 81 1019.2
20260902003608 21 0.0 0.0 0.00 0.00 0.00 81 1019.2
20260902002526 21 0.0 0.0 0.00 0.00 0.00 80 1019.0
20260902001542 21 0.0 0.0 0.00 0.00 0.00 79 1019.1
20260902000517 21 0.0 0.0 0.00 0.00 0.00 78 1019.1
20260901235535 22 0.0 0.0 0.00 0.00 0.00 77 1019.2
20260901234531 22 0.0 0.0 0.00 0.00 0.00 75 1019.1
20260901233648 22 0.0 0.0 0.00 0.00 0.00 74 1019.0
20260901232526 22 17 0.0 1.6 0.00 0.00 0.00 74 1019.1
20260901231521 22 0.0 0.0 0.00 0.00 0.00 74 1019.1
20260901230519 23 0.0 0.0 0.00 0.00 0.00 73 1019.3
20260901225534 23 0.0 0.0 0.00 0.00 0.00 72 1019.1
20260901224531 23 1 1.6 3.2 0.00 0.00 0.00 72 1019.0
20260901223530 23 356 0.0 3.2 0.00 0.00 0.00 71 1019.0
20260901222527 23 0.0 0.0 0.00 0.00 0.00 71 1019.0
20260901221521 23 358 1.6 4.8 0.00 0.00 0.00 70 1019.0
20260901220517 23 0.0 0.0 0.00 0.00 0.00 70 1019.0
20260901215554 24 16 0.0 1.6 0.00 0.00 0.00 69 1019.0
20260901214531 24 0.0 0.0 0.00 0.00 0.00 68 1019.0
20260901213603 24 0.0 0.0 0.00 0.00 0.00 68 1018.9
20260901212519 25 0.0 0.0 0.00 0.00 0.00 67 1019.0
20260901211556 25 0.0 0.0 0.00 0.00 0.00 67 1019.1
20260901210653 25 0.0 0.0 0.00 0.00 0.00 67 1019.3
20260901205530 25 0.0 0.0 0.00 0.00 0.00 68 1019.3
20260901204708 24 24 0.0 1.6 0.00 0.00 0.00 68 1019.2
20260901203524 24 0.0 0.0 0.00 0.00 0.00 68 1019.1
20260901201638 24 0.0 0.0 0.00 0.00 0.00 69 1019.0
20260901200535 25 22 0.0 1.6 0.00 0.00 0.00 69 1019.0
20260901195553 25 31 0.0 1.6 0.00 0.00 0.00 68 1019.1
20260901194549 25 0.0 0.0 0.00 0.00 0.00 68 1019.0
20260901193626 25 0.0 0.0 0.00 0.00 0.00 67 1019.0
20260901192543 26 86 3.2 4.8 0.00 0.00 0.00 66 1018.9
20260901191520 26 78 1.6 3.2 0.00 0.00 0.00 65 1018.9
20260901190557 26 89 1.6 3.2 0.00 0.00 0.00 66 1018.7
20260901185553 26 80 1.6 3.2 0.00 0.00 0.00 66 1018.4